STARLINK-32767 (62601 NORAD) Tracking and Keplerian Element Data

This shows tracking and keplerian element data for the satellite.

Feedback or suggestion? Click here.




ElementValue
Catalog62601
NameSTARLINK-32767
Epoch Orbit5344
Epoch Day354.03294356
Epoch Year2025
RAAN7.6342
Inclination43.0036
Eccentricity0.0001307
Argument of Perigee262.8642
Mean Anonmoly97.2061
Mean Motion15.27584055
Decay Rate0.00025643
L11 62601U 25008Q 25354.03294356 .00025643 00000+0 93803-3 0 9996
L22 62601 43.0036 7.6342 0001307 262.8642 97.2061 15.27584055 53449



Live tracking and technical data element details for STARLINK-32767 (NORAD 62601). STARLINK-32767 can be tracked NOW for your location showing map with azimuth and elevation plus other details from your city location.







IsCatalogInMostPopularTable: catalog: 62601, numindb: 236
Update: records affected: 1



GetName: 62601 STARLINK-32767

Hit Count: updated at: Sat, 14 Mar 2026 02:01:16 GMT